Location: Dompnac
(44.5644°N, 4.1026°E)
Time: 02:38:53
(UTC+00:00)

USA 234 - Pass Details

Date: 19 January 2021
Orbit: 1100 x 1107 km, 123.0° (Epoch: 01 March)

Event Time Altitude Azimuth Distance (km) Brightness Sun altitude
Exits shadow 19:24:47 53° 16° (NNE) 1,330 3.5 -29.9°
Drops below altitude 10° 19:30:45 10° 314° (NW) 2,967 6.0 -31.0°
Sets 19:33:17 0° 310° (NW) 3,928 6.9 -31.4°
